Location: Godiavel Galaoual
(15.2485°N, 12.6604°W)
Time: 23:59:46
(UTC+00:00)

Transit 4A - Pass Details

Date: 22 June 2021
Orbit: 872 x 972 km, 66.8° (Epoch: 29 July)

Event Time Altitude Azimuth Distance (km) Brightness Sun altitude
Rises 09:50:39 0° 234° (SW) 3,592 10.6 46.5°
Reaches altitude 10° 09:53:56 10° 250° (WSW) 2,629 10.0 47.2°
Maximum altitude 09:58:13 20° 295° (WNW) 1,998 9.6 48.2°
Drops below altitude 10° 10:02:26 10° 341° (NNW) 2,581 10.3 49.2°
Sets 10:05:39 0° 358° (N) 3,504 11.1 49.9°
